Location: La Pernelle
(49.6188°N, 1.2999°W)
Time: 14:54:20
(UTC+00:00)

Cosmos 1626 - Pass Details

Date: 28 October 2021
Orbit: 487 x 492 km, 82.5° (Epoch: 30 November)

Event Time Altitude Azimuth Distance (km) Brightness Sun altitude
Exits shadow 03:50:17 20° 37° (NE) 1,180 4.5 -29.1°
Drops below altitude 10° 03:51:43 10° 25° (NNE) 1,700 5.2 -28.9°
Sets 03:53:56 0° 17° (NNE) 2,587 6.1 -28.5°
